Regional Weather Roundup
Issued by NWS

Home | Current Version | Previous Version | Graphics & Text | Print | Product List | Glossary On
Versions: 1 2 3 4 5 6 7 8 9 10 11 12 13 14 15 16 17 18 19 20 21 22 23 24 25 26 27 28 29 30 31 32 33 34 35 36 37 38 39 40 41 42 43 44 45 46 47 48 49 50
000
ASUS43 KOAX 140710
RWRNE

WEATHER ROUNDUP FOR NEBRASKA
NATIONAL WEATHER SERVICE OMAHA NE
100 AM CST SUN FEB 14 2016

NOTES: SATELLITE DATA IS BEING USED TO AUGMENT CLOUD COVER ABOVE
       12000 FEET.
       "FAIR" INDICATES FEW OR NO CLOUDS BELOW 12,000 FEET WITH NO
       SIGNIFICANT WEATHER AND/OR OBSTRUCTIONS TO VISIBILITY.

  * THESE STATIONS DO NOT REPORT WEATHER SUCH AS RAIN...SNOW OR FOG.

NEZ001>004-019>022-054>056-140800-
NEBRASKA PANHANDLE

CITY           SKY/WX    TMP DP  RH WIND       PRES   REMARKS
SCOTTSBLUFF    CLEAR     34  27  75 NW16      30.03F WCI  24
ALLIANCE       CLEAR     33  26  75 W17       29.98S WCI  22
CHADRON        CLEAR     34  27  75 W16       29.98S WCI  24
KIMBALL        CLEAR     31  26  81 NW14      30.04F WCI  21
SIDNEY         CLEAR     32  26  78 NW12      30.03F WCI  23
$$

NEZ057>060-069>072-079>082-140800-
SOUTHWEST NEBRASKA

CITY           SKY/WX    TMP DP  RH WIND       PRES   REMARKS
NORTH PLATTE   CLOUDY    31  27  85 W7        29.96F WCI  24
IMPERIAL       CLEAR     35  28  75 NW14      30.01S WCI  26
LEXINGTON      CLOUDY    28  19  69 SW8       29.99S WCI  20
MCCOOK         CLEAR     24  20  84 W9        30.01F WCI  14
OGALLALA       CLEAR     37  28  72 W22G30    30.00S WCI  25
$$

NEZ005>010-023>029-035>040-094-140800-
NORTH CENTRAL NEBRASKA

CITY           SKY/WX    TMP DP  RH WIND       PRES   REMARKS
VALENTINE      CLOUDY    35  33  92 W16       29.84F WCI  25
AINSWORTH      LGT RAIN  35  34  93 W18G24    29.83S WCI  25
BROKEN BOW     FLURRIES  29  22  75 W15       29.92S WCI  18
O`NEILL        CLOUDY    21  12  67 S14G21    29.86F WCI   8
ORD            CLOUDY    21  12  68 SW17      29.92S WCI   7
THEDFORD       CLOUDY    38  34  83 W15       29.91S WCI  30
$$

NEZ041-046>049-061>064-073>077-083>087-140800-
SOUTH CENTRAL NEBRASKA

CITY           SKY/WX    TMP DP  RH WIND       PRES   REMARKS
GRAND ISLAND   CLOUDY    18   9  68 S18       30.00F WCI   2
AURORA         CLOUDY    19  10  68 S14       30.01F WCI   5
HASTINGS       CLOUDY    18   8  65 S6        30.02S WCI  10
HEBRON         PTCLDY    19   9  66 S6        30.07F WCI  11
HOLDREGE       CLOUDY    20  13  73 SW12      29.99F WCI   8
KEARNEY *      CLOUDY    18  10  73 S10       30.00S WCI   6
YORK           CLOUDY    18   9  68 S12       30.03F WCI   5
$$

NEZ011>018-030>034-042>045-140800-
NORTHEAST NEBRASKA

CITY           SKY/WX    TMP DP  RH WIND       PRES   REMARKS
NORFOLK        CLOUDY    17   8  67 SE17      29.97F WCI   1
ALBION         CLOUDY    18   9  67 S14       29.97F WCI   5
BLAIR          CLOUDY    19   6  56 SE14      30.07F WCI   6
COLUMBUS *     CLOUDY    18   1  49 SE13      30.02F WCI   4
FREMONT        CLOUDY    18   5  56 SE14      30.07F WCI   5
TEKAMAH        CLOUDY    18   7  62 SE18      30.10F WCI   2
WAYNE          CLOUDY    17   8  66 SE18G25   30.01F WCI   1
$$

NEZ050>053-065>068-078-088>093-140800-
SOUTHEAST NEBRASKA

CITY           SKY/WX    TMP DP  RH WIND       PRES   REMARKS
LINCOLN        CLOUDY    19   6  57 SE13      30.10F WCI   6
OMAHA EPPLEY   CLOUDY    20   5  52 SE20      30.12F WCI   4
BEATRICE       CLOUDY    19   7  58 SE7       30.08F WCI  10
FALLS CITY     PTCLDY    20   4  50 SE8       30.12F WCI  10
NEBRASKA CITY  CLOUDY    19   1  46 SE13G18   30.11F WCI   6
PLATTSMOUTH    CLOUDY    19   4  52 SE14      30.10F WCI   5
$$

NEZ044-045-051>053-067-140800-
OMAHA AREA

CITY           SKY/WX    TMP DP  RH WIND       PRES   REMARKS
OMAHA EPPLEY   CLOUDY    20   5  52 SE20      30.12F WCI   4
BLAIR          CLOUDY    19   6  56 SE14      30.07F WCI   6
FREMONT        CLOUDY    18   5  56 SE14      30.07F WCI   5
MILLARD        CLOUDY    20   5  52 SE14      30.11F WCI   6
OFFUTT AFB     CLOUDY    19   3  50 E16       30.11F WCI   5
PLATTSMOUTH    CLOUDY    19   4  52 SE14      30.10F WCI   5
WAHOO          PTSUNNY   17   8  67 SE12      30.09S WCI   5
$$



USA.gov is the U.S. government's official web portal to all federal, state and local government web resources and services.